Hourly Data Report for October 20, 2016

All times are specified in Local Standard Time (LST). Add 1 hour to adjust for Daylight Saving Time where and when it is observed.

ARVIAT A
NUNAVUT

61°05'38.000" N
94°04'18.000" W
10.40 m
2300427
71174
YEK

Download Data

Hourly Data (October 2016)
Hourly Data Report for October 20, 2016
Temp Definition
°C
Dew Point Temp Definition
°C
Rel Hum Definition
%
Wind Dir Definition
10's deg

Wind Spd Definition
km/h
Visibility Definition
km
Stn Press Definition
kPa
Hmdx Definition


Wind Chill Definition


Weather Definition


TIME
00:00 Legend Double Dagger -1.0 -3.6 83 25 17 16.1 102.22   -6 LegendNANA
01:00 Legend Double Dagger -2.0 -4.7 82 23 21 16.1 102.19   -8 LegendNANA
02:00 Legend Double Dagger -2.5 -4.7 85 23 21 16.1 102.16   -9 LegendNANA
03:00 Legend Double Dagger -2.7 -4.6 87 22 21 16.1 102.14   -9 LegendNANA
04:00 Legend Double Dagger -3.2 -4.8 89 23 22 16.1 102.12   -10 LegendNANA
05:00 Legend Double Dagger -2.7 -4.3 89 23 24 16.1 102.11   -9 LegendNANA
06:00 Legend Double Dagger -2.4 -4.3 87 24 22 16.1 102.08   -9 LegendNANA
07:00 Legend Double Dagger -2.4 -4.3 87 24 21 16.1 102.08   -8 LegendNANA
08:00 Legend Double Dagger -4.3 -5.4 92 23 18 16.1 102.01   -10 LegendNANA
09:00 Legend Double Dagger -3.4 -4.8 90 23 21 16.1 101.97   -10 LegendNANA
10:00 Legend Double Dagger -2.6 -4.7 86 23 24 16.1 101.92   -9 LegendNANA
11:00 Legend Double Dagger -1.9 -4.1 85 23 24 16.1 101.91   -8 LegendNANA
12:00 Legend Double Dagger -1.7 -3.9 85 22 28 16.1 101.85   -8 LegendNANA
13:00 Legend Double Dagger -1.4 -3.7 84 22 28 16.1 101.80   -8 LegendNANA
14:00 Legend Double Dagger -1.2 -4.0 82 22 26 16.1 101.73   -8 LegendNANA
15:00 Legend Double Dagger -1.2 -3.7 83 22 22 16.1 101.69   -7 LegendNANA
16:00 Legend Double Dagger -0.8 -3.0 85 22 24 16.1 101.65   -7 LegendNANA
17:00 Legend Double Dagger -1.2 -3.3 86 22 28 16.1 101.60   -8 LegendNANA
18:00 Legend Double Dagger -1.3 -3.3 86 23 26 16.1 101.59   -8 LegendNANA
19:00 Legend Double Dagger -1.4 -3.4 86 23 28 16.1 101.54   -8 LegendNANA
20:00 Legend Double Dagger -1.7 -3.6 87 24 28 16.1 101.54   -8 LegendNANA
21:00 Legend Double Dagger -1.7 -3.3 89 23 13 16.1 101.47   -6 LegendNANA
22:00 Legend Double Dagger -1.3 -2.7 90 20 17 16.1 101.39   -6 LegendNANA
23:00 Legend Double Dagger -0.1 -1.7 89 21 24 16.1 101.30   -6 LegendNANA

Notes on Data Quality.

Legend

  • E = Estimated
  • M = Missing
  • NA = Not Available
  • ‡ = Partner data that is not subject to review by the National Climate Archives
Date modified: